Regional Weather Roundup
Issued by NWS

Home | Current Version | Previous Version | Text Only | Print | Product List | Glossary On
Versions: 1 2 3 4 5 6 7 8 9 10 11 12 13 14 15 16 17 18 19 20 21 22 23 24 25 26 27
000
ASCA42 TJSJ 281910
RWRPR
PUERTO RICO/U.S. VIRGIN ISLANDS HOURLY WEATHER ROUNDUP
NATIONAL WEATHER SERVICE SAN JUAN PR
300 PM AST WED JUN 28 2017

PRZ001>002-007>008-010-282000-
PUERTO RICO

CITY           SKY/WX    TMP DP  RH WIND       PRES   REMARKS
SAN JUAN LMM   MOSUNNY   88  75  66 NE18      29.98F HX  97
AGUADILLA      MOSUNNY   86  73  66 E17       30.00F HX  93
CEIBA          MOSUNNY   86  79  79 NE9       30.00F HX  99
$$

VIZ001>002-282000-
U.S. VIRGIN ISLANDS

CITY           SKY/WX    TMP DP  RH WIND       PRES   REMARKS
CHARLOTTE AMA  MOSUNNY   86  75  70 SE15      29.97F HX  95
CHRISTIANSTED  MOSUNNY   86  73  66 E17G24    29.97F HX  93
$$

HOURLY WEATHER ROUNDUP FOR THE NEWS MEDIA

CITY           SKY/WX    TMP DP  RH WIND       PRES   REMARKS
ORLANDO        PTSUNNY   89  74  60 NE8       30.04F HX  98
NEW YORK       MOSUNNY   80  50  34 W15G22    30.10F
NEWARK         PTSUNNY   80  49  33 NW15G24   30.10F
CHICAGO        LGT RAIN  71  61  70 S18       29.87F
HARTFORD       MOSUNNY   75  48  38 NW9G28    30.04R
BOSTON         MOSUNNY   75  49  39 W14       30.03R
DALLAS         PTSUNNY   88  70  55 SE12      29.93F HX  93
PHILADELPHIA   MOSUNNY   79  47  32 W10       30.14S
LOS ANGELES    SUNNY     70  59  68 W12       29.89S
WASHINGTON DC  MOSUNNY   78  45  30 VRB5      30.17F



USA.gov is the U.S. government's official web portal to all federal, state and local government web resources and services.